Torna al catalogo

STARLINK-31353

AttivoComunicazioniVLEO
NORAD 58980·PAYLOAD·🇺🇸 United States

Lanciato Feb 15, 2024 da Vandenberg Space Force Base

Loading…

Prossimi Passaggi (prossime 24 ore)

TLE

AggiornatoSource: CelesTrak SupGP

Epoca: Sep 14, 2026, 14:25 UTC

1 58980C 24031R   26257.60118056  .00054812  00000+0  16197-2 0  2571
2 58980  53.1574 137.1943 0001242  86.7865 320.1661 15.34357988    17

Traccia STARLINK-31353 in tempo reale con AllMySat

Download on the App Store